JBU2896 MDPC-KBOS

Flight info

Callsign JBU2896
Flight time 3h 59m
Altitude 34000
Route CHUMA2W CHUMA DCT JANMA M597 THANK L456 HANCY/M079F340 L456 MEGGG DCT BALTN DCT DASER DCT KAYYT/N0459F340 Y578 JENYY DCT FERNZ OOSHN5
Aircraft A321/M-SDE3FGHIRWY/LB1

Departure

Time 2026-05-06 17:08
Airport Punta Cana International Airport (MDPC)

Arrival

Time 2026-05-06 21:08
Airport Boston Logan International Airport (KBOS)
Time Latitude Longitude Altitude Speed Heading
2026-05-06 16:37 18.56358 -68.36602 51 ft 0 kts 175°
2026-05-06 16:50 18.56359 -68.36602 50 ft 0 kts 175°
2026-05-06 16:57 18.56362 -68.36602 49 ft 3 kts 175°
2026-05-06 16:58 18.56388 -68.36605 48 ft 4 kts 175°
2026-05-06 16:58 18.56414 -68.36606 48 ft 4 kts 189°
2026-05-06 16:58 18.56437 -68.36596 47 ft 4 kts 230°
2026-05-06 16:58 18.56448 -68.36572 50 ft 4 kts 264°
2026-05-06 16:59 18.56449 -68.36547 50 ft 1 kts 265°
2026-05-06 16:59 18.56451 -68.36521 50 ft 4 kts 265°
2026-05-06 16:59 18.56452 -68.36506 50 ft 0 kts 265°
2026-05-06 17:01 18.56452 -68.36510 50 ft 3 kts 265°
2026-05-06 17:01 18.56455 -68.36562 50 ft 10 kts 282°
2026-05-06 17:01 18.56490 -68.36627 50 ft 11 kts 306°
2026-05-06 17:01 18.56525 -68.36701 50 ft 12 kts 279°
2026-05-06 17:02 18.56519 -68.36794 50 ft 14 kts 264°
2026-05-06 17:02 18.56511 -68.36900 50 ft 15 kts 265°
2026-05-06 17:02 18.56502 -68.37007 50 ft 15 kts 265°
2026-05-06 17:02 18.56493 -68.37117 50 ft 17 kts 264°
2026-05-06 17:03 18.56481 -68.37243 50 ft 17 kts 264°
2026-05-06 17:03 18.56470 -68.37372 50 ft 18 kts 265°
2026-05-06 17:03 18.56458 -68.37504 50 ft 18 kts 264°
2026-05-06 17:03 18.56448 -68.37633 50 ft 18 kts 265°
2026-05-06 17:04 18.56454 -68.37763 49 ft 17 kts 304°
2026-05-06 17:04 18.56561 -68.37789 50 ft 16 kts 355°
2026-05-06 17:04 18.56671 -68.37809 51 ft 16 kts 327°
2026-05-06 17:04 18.56728 -68.37916 49 ft 18 kts 294°
2026-05-06 17:05 18.56784 -68.38045 50 ft 20 kts 294°
2026-05-06 17:05 18.56842 -68.38181 48 ft 20 kts 294°
2026-05-06 17:05 18.56924 -68.38261 51 ft 15 kts 342°
2026-05-06 17:05 18.57023 -68.38278 48 ft 13 kts 30°
2026-05-06 17:06 18.57049 -68.38225 52 ft 0 kts 73°
2026-05-06 17:06 18.57055 -68.38206 52 ft 12 kts 73°
2026-05-06 17:06 18.57147 -68.37872 50 ft 81 kts 74°
2026-05-06 17:06 18.57253 -68.37532 49 ft 111 kts 70°
2026-05-06 17:07 18.57266 -68.37495 50 ft 114 kts 70°
2026-05-06 17:07 18.57299 -68.37398 51 ft 120 kts 72°
2026-05-06 17:08 18.57397 -68.36976 50 ft 143 kts 76°
2026-05-06 17:08 18.57704 -68.35819 208 ft 174 kts 76°
2026-05-06 17:08 18.58035 -68.34633 917 ft 169 kts 75°
2026-05-06 17:08 18.58376 -68.33430 1374 ft 174 kts 78°
2026-05-06 17:09 18.58740 -68.32146 1565 ft 193 kts 72°
2026-05-06 17:09 18.59614 -68.30998 1676 ft 218 kts 33°
2026-05-06 17:09 18.61147 -68.30644 1810 ft 241 kts 357°
2026-05-06 17:09 18.62894 -68.30870 1941 ft 265 kts 353°
2026-05-06 17:10 18.64763 -68.31146 2350 ft 275 kts 353°
2026-05-06 17:10 18.66670 -68.31432 2927 ft 279 kts 353°
2026-05-06 17:10 18.68602 -68.31718 3525 ft 281 kts 353°
2026-05-06 17:10 18.70542 -68.32001 4140 ft 282 kts 354°
2026-05-06 17:11 18.72494 -68.32279 4756 ft 284 kts 354°
2026-05-06 17:11 18.74456 -68.32553 5360 ft 285 kts 354°
2026-05-06 17:11 18.76425 -68.32826 5917 ft 287 kts 354°
2026-05-06 17:11 18.78418 -68.33102 6485 ft 290 kts 353°
2026-05-06 17:12 18.80423 -68.33380 7004 ft 292 kts 354°
2026-05-06 17:12 18.82449 -68.33662 7509 ft 295 kts 353°
2026-05-06 17:12 18.84488 -68.33947 8033 ft 297 kts 353°
2026-05-06 17:12 18.86533 -68.34233 8581 ft 298 kts 352°
2026-05-06 17:13 18.88501 -68.34508 9076 ft 299 kts 352°
2026-05-06 17:13 18.90571 -68.34799 9602 ft 301 kts 352°
2026-05-06 17:13 18.92647 -68.35090 10126 ft 303 kts 352°
2026-05-06 17:13 18.94797 -68.35393 10250 ft 320 kts 352°
2026-05-06 17:14 18.97053 -68.35711 10373 ft 335 kts 352°
2026-05-06 17:14 18.99422 -68.36041 10492 ft 350 kts 352°
2026-05-06 17:14 19.01887 -68.36383 10601 ft 364 kts 352°
2026-05-06 17:14 19.03572 -68.36618 10688 ft 373 kts 352°
2026-05-06 17:15 19.07095 -68.37112 10837 ft 390 kts 351°
2026-05-06 17:15 19.08895 -68.37366 10924 ft 397 kts 352°
2026-05-06 17:15 19.11654 -68.37753 11242 ft 402 kts 352°
2026-05-06 17:15 19.14443 -68.38144 11656 ft 405 kts 352°
2026-05-06 17:16 19.17242 -68.38487 12100 ft 406 kts 356°
2026-05-06 17:16 19.19724 -68.38380 12494 ft 409 kts
2026-05-06 17:16 19.22499 -68.37672 12935 ft 411 kts 19°
2026-05-06 17:16 19.25089 -68.36379 13369 ft 414 kts 30°
2026-05-06 17:17 19.27398 -68.34543 13805 ft 417 kts 40°
2026-05-06 17:17 19.29600 -68.32523 14189 ft 420 kts 39°
2026-05-06 17:17 19.31811 -68.30495 14564 ft 422 kts 39°
2026-05-06 17:17 19.34038 -68.28454 14937 ft 425 kts 39°
2026-05-06 17:18 19.36282 -68.26400 15311 ft 428 kts 39°
2026-05-06 17:18 19.38539 -68.24336 15690 ft 430 kts 39°
2026-05-06 17:18 19.40782 -68.22289 16053 ft 433 kts 39°
2026-05-06 17:18 19.43069 -68.20202 16417 ft 435 kts 39°
2026-05-06 17:19 19.45366 -68.18102 16779 ft 438 kts 39°
2026-05-06 17:19 19.47680 -68.15985 17108 ft 440 kts 39°
2026-05-06 17:19 19.50003 -68.13858 17459 ft 443 kts 39°
2026-05-06 17:19 19.52340 -68.11715 17802 ft 445 kts 39°
2026-05-06 17:20 19.54687 -68.09562 18141 ft 448 kts 39°
2026-05-06 17:20 19.57053 -68.07389 18461 ft 451 kts 39°
2026-05-06 17:20 19.59425 -68.05211 18760 ft 453 kts 39°
2026-05-06 17:20 19.61812 -68.03019 19067 ft 454 kts 39°
2026-05-06 17:21 19.64200 -68.00826 19370 ft 456 kts 39°
2026-05-06 17:21 19.66599 -67.98623 19667 ft 457 kts 38°
2026-05-06 17:21 19.69007 -67.96410 19967 ft 458 kts 39°
2026-05-06 17:21 19.70657 -67.94890 20167 ft 459 kts 39°
2026-05-06 17:22 19.72894 -67.92822 20435 ft 461 kts 39°
2026-05-06 17:22 19.75322 -67.90580 20709 ft 463 kts 38°
2026-05-06 17:22 19.77754 -67.88340 20987 ft 464 kts 38°
2026-05-06 17:22 19.80198 -67.86089 21263 ft 466 kts 38°
2026-05-06 17:23 19.82653 -67.83835 21555 ft 467 kts 38°
2026-05-06 17:23 19.85118 -67.81574 21829 ft 469 kts 38°
2026-05-06 17:23 19.87588 -67.79301 22092 ft 470 kts 38°
2026-05-06 17:23 19.90061 -67.77020 22359 ft 472 kts 39°
2026-05-06 17:24 19.92542 -67.74731 22627 ft 473 kts 38°
2026-05-06 17:24 19.95030 -67.72439 22882 ft 474 kts 39°
2026-05-06 17:24 19.97523 -67.70139 23116 ft 476 kts 39°
2026-05-06 17:24 20.00028 -67.67822 23370 ft 477 kts 39°
2026-05-06 17:25 20.02531 -67.65502 23631 ft 479 kts 39°
2026-05-06 17:25 20.05013 -67.63198 23840 ft 480 kts 39°
2026-05-06 17:25 20.07540 -67.60860 24045 ft 482 kts 38°
2026-05-06 17:25 20.10072 -67.58521 24258 ft 483 kts 38°
2026-05-06 17:26 20.12613 -67.56172 24453 ft 485 kts 38°
2026-05-06 17:26 20.15163 -67.53816 24747 ft 484 kts 38°
2026-05-06 17:26 20.17490 -67.51658 25039 ft 484 kts 38°
2026-05-06 17:26 20.20021 -67.49306 25343 ft 483 kts 38°
2026-05-06 17:27 20.22551 -67.46952 25640 ft 483 kts 38°
2026-05-06 17:27 20.25078 -67.44603 25933 ft 482 kts 38°
2026-05-06 17:27 20.27604 -67.42255 26238 ft 482 kts 38°
2026-05-06 17:27 20.30133 -67.39907 26524 ft 482 kts 38°
2026-05-06 17:28 20.32660 -67.37559 26816 ft 482 kts 38°
2026-05-06 17:28 20.35185 -67.35211 27114 ft 482 kts 38°
2026-05-06 17:28 20.37702 -67.32869 27410 ft 481 kts 38°
2026-05-06 17:28 20.40230 -67.30515 27720 ft 481 kts 38°
2026-05-06 17:29 20.42745 -67.28171 28021 ft 481 kts 38°
2026-05-06 17:29 20.45263 -67.25826 28322 ft 480 kts 38°
2026-05-06 17:29 20.47781 -67.23485 28627 ft 480 kts 38°
2026-05-06 17:29 20.50291 -67.21143 28921 ft 480 kts 38°
2026-05-06 17:30 20.52803 -67.18795 29193 ft 480 kts 38°
2026-05-06 17:30 20.55163 -67.16264 29486 ft 483 kts 45°
2026-05-06 17:30 20.57387 -67.13568 29771 ft 483 kts 45°
2026-05-06 17:30 20.59608 -67.10878 30063 ft 483 kts 45°
2026-05-06 17:31 20.61643 -67.08414 30307 ft 483 kts 45°
2026-05-06 17:31 20.63863 -67.05729 30556 ft 482 kts 45°
2026-05-06 17:31 20.66083 -67.03045 30809 ft 481 kts 45°
2026-05-06 17:31 20.68298 -67.00367 31066 ft 481 kts 45°
2026-05-06 17:32 20.70509 -66.97692 31307 ft 480 kts 45°
2026-05-06 17:32 20.72716 -66.95020 31554 ft 479 kts 45°
2026-05-06 17:32 20.74919 -66.92353 31803 ft 479 kts 45°
2026-05-06 17:32 20.76973 -66.89860 32027 ft 478 kts 45°
2026-05-06 17:33 20.79166 -66.87193 32248 ft 478 kts 45°
2026-05-06 17:33 20.81360 -66.84521 32472 ft 478 kts 45°
2026-05-06 17:33 20.83552 -66.81852 32703 ft 477 kts 45°
2026-05-06 17:33 20.85712 -66.79221 32937 ft 476 kts 45°
2026-05-06 17:34 20.87896 -66.76559 33182 ft 476 kts 45°
2026-05-06 17:34 20.90078 -66.73902 33394 ft 475 kts 45°
2026-05-06 17:34 20.92255 -66.71250 33622 ft 474 kts 45°
2026-05-06 17:34 20.94433 -66.68597 33842 ft 474 kts 45°
2026-05-06 17:35 20.96605 -66.65952 34040 ft 474 kts 45°
2026-05-06 17:35 21.00974 -66.60635 34115 ft 477 kts 45°
2026-05-06 17:36 21.07552 -66.52601 34127 ft 479 kts 45°
2026-05-06 17:36 21.11938 -66.47238 34119 ft 478 kts 45°
2026-05-06 17:37 21.16310 -66.41883 34123 ft 478 kts 46°
2026-05-06 17:37 21.20683 -66.36514 34127 ft 478 kts 45°
2026-05-06 17:38 21.25062 -66.31147 34135 ft 478 kts 46°
2026-05-06 17:38 21.29442 -66.25776 34136 ft 478 kts 45°
2026-05-06 17:39 21.33828 -66.20399 34147 ft 479 kts 46°
2026-05-06 17:39 21.38169 -66.15056 34148 ft 478 kts 46°
2026-05-06 17:40 21.42883 -66.10097 34150 ft 470 kts 30°
2026-05-06 17:40 21.45718 -66.08410 34145 ft 464 kts 19°
2026-05-06 17:40 21.48767 -66.07349 34142 ft 458 kts
2026-05-06 17:41 21.51909 -66.06940 34137 ft 453 kts 357°
2026-05-06 17:41 21.55033 -66.07167 34137 ft 448 kts 347°
2026-05-06 17:41 21.61150 -66.08416 34141 ft 448 kts 346°
2026-05-06 17:42 21.67281 -66.09662 34134 ft 449 kts 347°
2026-05-06 17:42 21.72778 -66.10770 34135 ft 449 kts 347°
2026-05-06 17:43 21.78931 -66.12019 34139 ft 449 kts 347°
2026-05-06 17:43 21.85076 -66.13264 34145 ft 450 kts 347°
2026-05-06 17:44 21.91228 -66.14517 34143 ft 450 kts 346°
2026-05-06 17:44 21.97382 -66.15772 34151 ft 450 kts 347°
2026-05-06 17:45 22.03535 -66.17034 34149 ft 450 kts 347°
2026-05-06 17:45 22.09695 -66.18294 34152 ft 450 kts 347°
2026-05-06 17:46 22.15846 -66.19549 34150 ft 450 kts 347°
2026-05-06 17:46 22.21957 -66.20789 34151 ft 450 kts 347°
2026-05-06 17:47 22.28103 -66.22048 34162 ft 449 kts 346°
2026-05-06 17:47 22.34233 -66.23315 34158 ft 448 kts 346°
2026-05-06 17:48 22.40357 -66.24573 34156 ft 448 kts 347°
2026-05-06 17:48 22.46472 -66.25822 34145 ft 447 kts 347°
2026-05-06 17:49 22.52134 -66.26977 34153 ft 448 kts 347°
2026-05-06 17:49 22.58252 -66.28236 34168 ft 447 kts 347°
2026-05-06 17:50 22.64364 -66.29491 34161 ft 446 kts 347°
2026-05-06 17:50 22.70458 -66.30745 34162 ft 446 kts 347°
2026-05-06 17:51 22.76553 -66.32005 34162 ft 445 kts 347°
2026-05-06 17:51 22.82598 -66.33252 34164 ft 445 kts 347°
2026-05-06 17:52 22.88685 -66.34509 34159 ft 445 kts 347°
2026-05-06 17:52 22.94767 -66.35767 34164 ft 445 kts 347°
2026-05-06 17:53 23.00850 -66.37029 34162 ft 445 kts 347°
2026-05-06 17:53 23.06937 -66.38294 34157 ft 445 kts 347°
2026-05-06 17:54 23.13020 -66.39549 34159 ft 445 kts 347°
2026-05-06 17:54 23.19103 -66.40806 34156 ft 445 kts 347°
2026-05-06 17:55 23.25182 -66.42071 34166 ft 445 kts 347°
2026-05-06 17:55 23.31260 -66.43342 34162 ft 444 kts 347°
2026-05-06 17:56 23.36672 -66.44467 34161 ft 444 kts 347°
2026-05-06 17:56 23.42749 -66.45722 34166 ft 444 kts 347°
2026-05-06 17:57 23.48787 -66.46981 34171 ft 444 kts 346°
2026-05-06 17:57 23.54855 -66.48250 34166 ft 444 kts 346°
2026-05-06 17:58 23.60925 -66.49524 34172 ft 444 kts 346°
2026-05-06 17:58 23.66990 -66.50796 34158 ft 444 kts 346°
2026-05-06 17:59 23.73062 -66.52059 34162 ft 444 kts 346°
2026-05-06 17:59 23.79131 -66.53316 34167 ft 444 kts 346°
2026-05-06 18:00 23.85199 -66.54593 34161 ft 444 kts 346°
2026-05-06 18:00 23.91272 -66.55876 34160 ft 445 kts 346°
2026-05-06 18:01 23.97354 -66.57158 34156 ft 445 kts 346°
2026-05-06 18:01 24.03437 -66.58430 34155 ft 445 kts 346°
2026-05-06 18:02 24.09522 -66.59712 34165 ft 445 kts 346°
2026-05-06 18:02 24.13552 -66.60560 34165 ft 446 kts 346°
2026-05-06 18:03 24.20434 -66.62007 34158 ft 446 kts 346°
2026-05-06 18:03 24.26528 -66.63296 34157 ft 446 kts 346°
2026-05-06 18:04 24.32587 -66.64580 34159 ft 446 kts 346°
2026-05-06 18:04 24.38685 -66.65864 34174 ft 446 kts 346°
2026-05-06 18:05 24.44778 -66.67146 34167 ft 446 kts 346°
2026-05-06 18:05 24.50867 -66.68438 34162 ft 445 kts 346°
2026-05-06 18:06 24.56950 -66.69734 34159 ft 445 kts 346°
2026-05-06 18:06 24.62018 -66.70802 34159 ft 445 kts 346°
2026-05-06 18:07 24.68100 -66.72088 34177 ft 445 kts 346°
2026-05-06 18:07 24.74176 -66.73384 34165 ft 444 kts 346°
2026-05-06 18:08 24.80240 -66.74682 34160 ft 444 kts 346°
2026-05-06 18:08 24.86297 -66.75977 34161 ft 443 kts 346°
2026-05-06 18:09 24.92349 -66.77263 34160 ft 443 kts 346°
2026-05-06 18:09 24.98402 -66.78552 34177 ft 443 kts 346°
2026-05-06 18:10 25.04443 -66.79841 34169 ft 442 kts 346°
2026-05-06 18:10 25.10478 -66.81140 34169 ft 441 kts 346°
2026-05-06 18:11 25.16502 -66.82424 34161 ft 441 kts 346°
2026-05-06 18:11 25.22519 -66.83714 34160 ft 441 kts 346°
2026-05-06 18:12 25.28280 -66.84948 34176 ft 441 kts 346°
2026-05-06 18:12 25.34076 -66.86194 34170 ft 440 kts 346°
2026-05-06 18:13 25.40087 -66.87486 34155 ft 440 kts 346°
2026-05-06 18:13 25.46094 -66.88770 34156 ft 440 kts 346°
2026-05-06 18:14 25.52056 -66.90056 34160 ft 439 kts 346°
2026-05-06 18:14 25.58048 -66.91356 34165 ft 439 kts 346°
2026-05-06 18:15 25.62973 -66.92427 34159 ft 438 kts 346°
2026-05-06 18:15 25.66914 -66.93268 34158 ft 438 kts 346°
2026-05-06 18:16 25.72898 -66.94555 34159 ft 438 kts 346°
2026-05-06 18:16 25.78879 -66.95849 34157 ft 438 kts 346°
2026-05-06 18:17 25.84856 -66.97147 34156 ft 438 kts 346°
2026-05-06 18:17 25.85866 -66.97367 34156 ft 438 kts 346°
2026-05-06 18:18 25.86851 -66.97581 34153 ft 438 kts 346°
2026-05-06 18:18 25.92823 -66.98882 34155 ft 438 kts 346°
2026-05-06 18:19 25.98802 -67.00184 34154 ft 438 kts 346°
2026-05-06 18:19 26.04779 -67.01482 34155 ft 438 kts 346°
2026-05-06 18:20 26.10756 -67.02780 34154 ft 438 kts 346°
2026-05-06 18:20 26.16697 -67.04075 34169 ft 438 kts 346°
2026-05-06 18:21 26.22688 -67.05379 34160 ft 437 kts 346°
2026-05-06 18:21 26.28609 -67.06661 34157 ft 437 kts 346°
2026-05-06 18:22 26.34576 -67.07965 34154 ft 436 kts 346°
2026-05-06 18:22 26.40535 -67.09265 34155 ft 436 kts 346°
2026-05-06 18:23 26.46495 -67.10578 34179 ft 436 kts 346°
2026-05-06 18:23 26.52447 -67.11886 34167 ft 435 kts 346°
2026-05-06 18:24 26.58384 -67.13189 34156 ft 435 kts 346°
2026-05-06 18:24 26.64324 -67.14496 34157 ft 435 kts 346°
2026-05-06 18:25 26.70254 -67.15798 34157 ft 434 kts 346°
2026-05-06 18:25 26.76182 -67.17105 34173 ft 434 kts 345°
2026-05-06 18:26 26.82095 -67.18412 34166 ft 434 kts 346°
2026-05-06 18:26 26.88026 -67.19713 34164 ft 434 kts 346°
2026-05-06 18:27 26.93947 -67.21016 34162 ft 434 kts 346°
2026-05-06 18:27 26.99866 -67.22328 34157 ft 433 kts 346°
2026-05-06 18:28 27.05765 -67.23641 34170 ft 432 kts 346°
2026-05-06 18:28 27.11666 -67.24947 34168 ft 431 kts 346°
2026-05-06 18:29 27.17547 -67.26245 34168 ft 431 kts 346°
2026-05-06 18:29 27.23426 -67.27547 34166 ft 430 kts 346°
2026-05-06 18:30 27.29253 -67.28854 34167 ft 430 kts 346°
2026-05-06 18:30 27.35113 -67.30159 34186 ft 429 kts 346°
2026-05-06 18:31 27.40974 -67.31458 34179 ft 428 kts 346°
2026-05-06 18:31 27.46819 -67.32757 34174 ft 428 kts 346°
2026-05-06 18:32 27.52658 -67.34063 34172 ft 427 kts 346°
2026-05-06 18:32 27.58169 -67.35302 34170 ft 427 kts 346°
2026-05-06 18:33 27.64004 -67.36606 34185 ft 427 kts 346°
2026-05-06 18:33 27.69825 -67.37901 34182 ft 426 kts 346°
2026-05-06 18:34 27.75635 -67.39207 34175 ft 426 kts 346°
2026-05-06 18:34 27.81445 -67.40511 34176 ft 425 kts 346°
2026-05-06 18:35 27.87251 -67.41811 34175 ft 425 kts 346°
2026-05-06 18:35 27.93014 -67.43109 34194 ft 425 kts 346°
2026-05-06 18:36 27.98813 -67.44412 34186 ft 424 kts 346°
2026-05-06 18:36 28.04595 -67.45720 34183 ft 424 kts 346°
2026-05-06 18:37 28.09402 -67.46806 34178 ft 424 kts 346°
2026-05-06 18:37 28.16157 -67.48324 34180 ft 423 kts 346°
2026-05-06 18:38 28.21936 -67.49634 34197 ft 423 kts 346°
2026-05-06 18:38 28.27701 -67.50948 34193 ft 422 kts 346°
2026-05-06 18:39 28.33460 -67.52251 34187 ft 422 kts 346°
2026-05-06 18:40 28.42262 -67.53059 34182 ft 425 kts 355°
2026-05-06 18:40 28.48134 -67.53243 34193 ft 425 kts 355°
2026-05-06 18:41 28.54044 -67.53434 34191 ft 424 kts 355°
2026-05-06 18:41 28.59947 -67.53628 34192 ft 424 kts 355°
2026-05-06 18:42 28.65847 -67.53821 34189 ft 424 kts 355°
2026-05-06 18:42 28.71744 -67.54009 34189 ft 424 kts 355°
2026-05-06 18:43 28.77632 -67.54195 34185 ft 423 kts 355°
2026-05-06 18:43 28.83465 -67.54374 34618 ft 404 kts 355°
2026-05-06 18:43 28.86259 -67.54430 34908 ft 402 kts 356°
2026-05-06 18:44 28.89078 -67.54465 34798 ft 410 kts 356°
2026-05-06 18:44 28.91952 -67.54478 34317 ft 416 kts 357°
2026-05-06 18:44 28.94862 -67.54467 33382 ft 422 kts 357°
2026-05-06 18:44 28.97839 -67.54435 32174 ft 433 kts 356°
2026-05-06 18:45 29.00643 -67.54516 33632 ft 374 kts 353°
2026-05-06 18:45 29.03225 -67.54702 34139 ft 374 kts 352°
2026-05-06 18:45 29.04739 -67.54836 34173 ft 376 kts 352°
2026-05-06 18:46 29.10044 -67.55247 34171 ft 388 kts 353°
2026-05-06 18:46 29.15516 -67.55491 34174 ft 399 kts 354°
2026-05-06 18:47 29.21139 -67.55653 34169 ft 409 kts 355°
2026-05-06 18:47 29.26854 -67.55819 34169 ft 416 kts 354°
2026-05-06 18:48 29.32634 -67.56002 34167 ft 415 kts 354°
2026-05-06 18:48 29.38408 -67.56190 34169 ft 415 kts 354°
2026-05-06 18:49 29.44187 -67.56378 34169 ft 415 kts 354°
2026-05-06 18:49 29.49965 -67.56570 34171 ft 415 kts 354°
2026-05-06 18:50 29.55740 -67.56754 34193 ft 416 kts 354°
2026-05-06 18:50 29.61524 -67.56940 34192 ft 416 kts 354°
2026-05-06 18:51 29.67301 -67.57132 34195 ft 416 kts 354°
2026-05-06 18:51 29.73085 -67.57334 34195 ft 415 kts 354°
2026-05-06 18:52 29.78867 -67.57530 34192 ft 416 kts 354°
2026-05-06 18:52 29.84649 -67.57729 34211 ft 416 kts 354°
2026-05-06 18:53 29.90430 -67.57917 34206 ft 415 kts 354°
2026-05-06 18:53 29.96208 -67.58101 34202 ft 415 kts 354°
2026-05-06 18:54 30.01981 -67.58295 34199 ft 415 kts 354°
2026-05-06 18:54 30.07717 -67.58487 34199 ft 415 kts 354°
2026-05-06 18:55 30.13485 -67.58677 34211 ft 415 kts 354°
2026-05-06 18:55 30.19258 -67.58875 34204 ft 415 kts 354°
2026-05-06 18:56 30.25021 -67.59073 34203 ft 414 kts 354°
2026-05-06 18:56 30.29814 -67.59229 34202 ft 414 kts 354°
2026-05-06 18:57 30.35574 -67.59414 34213 ft 414 kts 354°
2026-05-06 18:57 30.41340 -67.59608 34200 ft 414 kts 354°
2026-05-06 18:58 30.47103 -67.59803 34197 ft 414 kts 354°
2026-05-06 18:58 30.52862 -67.59996 34196 ft 414 kts 354°
2026-05-06 18:59 30.58624 -67.60192 34193 ft 414 kts 354°
2026-05-06 18:59 30.64383 -67.60385 34211 ft 414 kts 354°
2026-05-06 19:00 30.70134 -67.60577 34202 ft 414 kts 355°
2026-05-06 19:00 30.75902 -67.60577 34199 ft 415 kts 356°
2026-05-06 19:01 30.81673 -67.60463 34197 ft 415 kts 356°
2026-05-06 19:01 30.87437 -67.60383 34198 ft 414 kts 356°
2026-05-06 19:02 30.93203 -67.60342 34205 ft 414 kts 356°
2026-05-06 19:02 30.98924 -67.60318 34200 ft 414 kts 356°
2026-05-06 19:03 31.04681 -67.60273 34197 ft 414 kts 356°
2026-05-06 19:03 31.10437 -67.60226 34195 ft 414 kts 356°
2026-05-06 19:04 31.16195 -67.60184 34205 ft 413 kts 356°
2026-05-06 19:04 31.21947 -67.60134 34200 ft 413 kts 356°
2026-05-06 19:05 31.27694 -67.60092 34197 ft 413 kts 356°
2026-05-06 19:05 31.33441 -67.60047 34192 ft 413 kts 356°
2026-05-06 19:06 31.39190 -67.59995 34192 ft 413 kts 356°
2026-05-06 19:06 31.44932 -67.59951 34195 ft 413 kts 356°
2026-05-06 19:07 31.50678 -67.59911 34194 ft 413 kts 356°
2026-05-06 19:07 31.56421 -67.59865 34194 ft 413 kts 356°
2026-05-06 19:08 31.62172 -67.59816 34194 ft 413 kts 356°
2026-05-06 19:08 31.67914 -67.59766 34208 ft 413 kts 356°
2026-05-06 19:09 31.73656 -67.59725 34206 ft 412 kts 356°
2026-05-06 19:09 31.79395 -67.59686 34203 ft 412 kts 356°
2026-05-06 19:10 31.85130 -67.59640 34202 ft 412 kts 356°
2026-05-06 19:10 31.90867 -67.59588 34217 ft 412 kts 357°
2026-05-06 19:11 31.96603 -67.59541 34212 ft 412 kts 357°
2026-05-06 19:11 32.02325 -67.59494 34209 ft 411 kts 357°
2026-05-06 19:13 32.07496 -67.59434 34202 ft 411 kts 357°
2026-05-06 19:13 32.13221 -67.59396 34202 ft 411 kts 357°
2026-05-06 19:14 32.18935 -67.59365 34215 ft 411 kts 357°
2026-05-06 19:14 32.24645 -67.59323 34212 ft 410 kts 357°
2026-05-06 19:15 32.30316 -67.59277 34210 ft 410 kts 357°
2026-05-06 19:15 32.36019 -67.59223 34209 ft 410 kts 357°
2026-05-06 19:16 32.41725 -67.59176 34223 ft 410 kts 357°
2026-05-06 19:16 32.47426 -67.59136 34217 ft 409 kts 357°
2026-05-06 19:17 32.53121 -67.59095 34213 ft 409 kts 357°
2026-05-06 19:17 32.58804 -67.59052 34210 ft 408 kts 357°
2026-05-06 19:18 32.64483 -67.59004 34208 ft 408 kts 357°
2026-05-06 19:18 32.70148 -67.58951 34218 ft 407 kts 357°
2026-05-06 19:19 32.75817 -67.58903 34212 ft 407 kts 357°
2026-05-06 19:19 32.81475 -67.58861 34209 ft 406 kts 357°
2026-05-06 19:20 32.87132 -67.58813 34205 ft 406 kts 357°
2026-05-06 19:20 32.92786 -67.58766 34221 ft 406 kts 357°
2026-05-06 19:21 32.98435 -67.58724 34215 ft 406 kts 357°
2026-05-06 19:21 33.01046 -67.58705 34215 ft 405 kts 357°
2026-05-06 19:22 33.06688 -67.58659 34214 ft 405 kts 357°
2026-05-06 19:22 33.12323 -67.58606 34212 ft 405 kts 357°
2026-05-06 19:23 33.17909 -67.58565 34228 ft 404 kts 357°
2026-05-06 19:23 33.23528 -67.58522 34222 ft 403 kts 357°
2026-05-06 19:24 33.29142 -67.58466 34218 ft 403 kts 357°
2026-05-06 19:24 33.34744 -67.58416 34211 ft 403 kts 357°
2026-05-06 19:25 33.40345 -67.58370 34220 ft 402 kts 357°
2026-05-06 19:25 33.45943 -67.58324 34220 ft 402 kts 357°
2026-05-06 19:26 33.51534 -67.58277 34213 ft 402 kts 357°
2026-05-06 19:26 33.57120 -67.58236 34211 ft 401 kts 357°
2026-05-06 19:27 33.62702 -67.58194 34216 ft 401 kts 357°
2026-05-06 19:27 33.68280 -67.58144 34219 ft 400 kts 357°
2026-05-06 19:28 33.73845 -67.58091 34215 ft 400 kts 357°
2026-05-06 19:28 33.79398 -67.58046 34213 ft 400 kts 357°
2026-05-06 19:29 33.84951 -67.58008 34211 ft 399 kts 357°
2026-05-06 19:29 33.90508 -67.57959 34211 ft 399 kts 357°
2026-05-06 19:30 33.96055 -67.57909 34209 ft 399 kts 357°
2026-05-06 19:30 34.01570 -67.57864 34210 ft 399 kts 357°
2026-05-06 19:31 34.07121 -67.57817 34211 ft 399 kts 357°
2026-05-06 19:31 34.15448 -67.57751 34216 ft 399 kts 356°
2026-05-06 19:32 34.20994 -67.57737 34216 ft 398 kts 356°
2026-05-06 19:32 34.26538 -67.57745 34214 ft 398 kts 356°
2026-05-06 19:33 34.32077 -67.57749 34211 ft 398 kts 356°
2026-05-06 19:33 34.37618 -67.57746 34227 ft 398 kts 356°
2026-05-06 19:34 34.43160 -67.57735 34222 ft 398 kts 356°
2026-05-06 19:34 34.48694 -67.57727 34219 ft 398 kts 356°
2026-05-06 19:35 34.52359 -67.57727 34217 ft 398 kts 356°
2026-05-06 19:35 34.53187 -67.57727 34217 ft 398 kts 356°
2026-05-06 19:36 34.58671 -67.57738 34217 ft 398 kts 356°
2026-05-06 19:36 34.64204 -67.57721 34226 ft 398 kts 356°
2026-05-06 19:37 34.69707 -67.57708 34221 ft 397 kts 356°
2026-05-06 19:37 34.74339 -67.57708 34219 ft 397 kts 356°
2026-05-06 19:38 34.80766 -67.57710 34215 ft 397 kts 356°
2026-05-06 19:38 34.86300 -67.57707 34231 ft 398 kts 356°
2026-05-06 19:39 34.91832 -67.57697 34224 ft 397 kts 356°
2026-05-06 19:39 34.97362 -67.57687 34220 ft 397 kts 356°
2026-05-06 19:40 35.02892 -67.57681 34216 ft 397 kts 356°
2026-05-06 19:40 35.08425 -67.57676 34216 ft 397 kts 356°
2026-05-06 19:41 35.13953 -67.57666 34220 ft 397 kts 356°
2026-05-06 19:41 35.19482 -67.57658 34217 ft 397 kts 356°
2026-05-06 19:42 35.25005 -67.57657 34216 ft 397 kts 355°
2026-05-06 19:42 35.30533 -67.57666 34215 ft 397 kts 355°
2026-05-06 19:43 35.35739 -67.57661 34229 ft 397 kts 355°
2026-05-06 19:43 35.41231 -67.57646 34221 ft 397 kts 355°
2026-05-06 19:44 35.46760 -67.57627 34217 ft 397 kts 355°
2026-05-06 19:44 35.52289 -67.57626 34215 ft 397 kts 355°
2026-05-06 19:45 35.56880 -67.57628 34221 ft 397 kts 355°
2026-05-06 19:45 35.62284 -67.57617 34217 ft 397 kts 355°
2026-05-06 19:46 35.67809 -67.57613 34215 ft 397 kts 355°
2026-05-06 19:46 35.73338 -67.57608 34214 ft 397 kts 355°
2026-05-06 19:47 35.78861 -67.57603 34212 ft 397 kts 355°
2026-05-06 19:47 35.84385 -67.57597 34218 ft 397 kts 355°
2026-05-06 19:48 35.89916 -67.57592 34211 ft 397 kts 355°
2026-05-06 19:48 35.95446 -67.57591 34209 ft 398 kts 355°
2026-05-06 19:49 36.00802 -67.57589 34208 ft 397 kts 355°
2026-05-06 19:49 36.05576 -67.57581 34203 ft 398 kts 355°
2026-05-06 19:50 36.10435 -67.57576 34197 ft 398 kts 355°
2026-05-06 19:50 36.15977 -67.57572 34202 ft 398 kts 355°
2026-05-06 19:51 36.21519 -67.57563 34206 ft 398 kts 355°
2026-05-06 19:51 36.27071 -67.57555 34211 ft 399 kts 355°
2026-05-06 19:52 36.32580 -67.57551 34209 ft 399 kts 355°
2026-05-06 19:52 36.38130 -67.57543 34209 ft 399 kts 355°
2026-05-06 19:53 36.43677 -67.57538 34213 ft 399 kts 355°
2026-05-06 19:53 36.49233 -67.57531 34215 ft 399 kts 354°
2026-05-06 19:54 36.54790 -67.57534 34211 ft 399 kts 354°
2026-05-06 19:54 36.60351 -67.57535 34204 ft 400 kts 354°
2026-05-06 19:55 36.65863 -67.57523 34206 ft 400 kts 354°
2026-05-06 19:55 36.71479 -67.57512 34206 ft 400 kts 354°
2026-05-06 19:56 36.76320 -67.57498 34205 ft 401 kts 354°
2026-05-06 19:56 36.81899 -67.57500 34202 ft 401 kts 354°
2026-05-06 19:57 36.87488 -67.57503 34197 ft 402 kts 354°
2026-05-06 19:57 36.93076 -67.57495 34196 ft 402 kts 354°
2026-05-06 19:58 36.98636 -67.57484 34204 ft 403 kts 354°
2026-05-06 19:58 37.04248 -67.57476 34199 ft 403 kts 354°
2026-05-06 19:59 37.09862 -67.57475 34196 ft 404 kts 354°
2026-05-06 19:59 37.15483 -67.57473 34189 ft 404 kts 354°
2026-05-06 20:00 37.21104 -67.57470 34189 ft 404 kts 354°
2026-05-06 20:00 37.26733 -67.57463 34186 ft 405 kts 354°
2026-05-06 20:01 37.32373 -67.57454 34180 ft 405 kts 354°
2026-05-06 20:01 37.38014 -67.57440 34181 ft 406 kts 354°
2026-05-06 20:02 37.43670 -67.57441 34176 ft 407 kts 354°
2026-05-06 20:02 37.49338 -67.57447 34174 ft 408 kts 354°
2026-05-06 20:03 37.55015 -67.57441 34173 ft 409 kts 354°
2026-05-06 20:03 37.60705 -67.57424 34173 ft 409 kts 354°
2026-05-06 20:04 37.66239 -67.57412 34173 ft 410 kts 353°
2026-05-06 20:04 37.71951 -67.57416 34171 ft 411 kts 353°
2026-05-06 20:05 37.77506 -67.57414 34169 ft 411 kts 353°
2026-05-06 20:05 37.83224 -67.57404 34188 ft 411 kts 353°
2026-05-06 20:06 37.88963 -67.57397 34173 ft 413 kts 353°
2026-05-06 20:06 37.94710 -67.57389 34166 ft 413 kts 353°
2026-05-06 20:07 38.00470 -67.57381 34161 ft 414 kts 353°
2026-05-06 20:07 38.06234 -67.57377 34168 ft 414 kts 353°
2026-05-06 20:08 38.10866 -67.57379 34162 ft 415 kts 353°
2026-05-06 20:08 38.16641 -67.57368 34159 ft 415 kts 353°
2026-05-06 20:09 38.20287 -67.57360 34154 ft 415 kts 353°
2026-05-06 20:09 38.24388 -67.57349 34154 ft 416 kts 353°
2026-05-06 20:10 38.30175 -67.57338 34150 ft 417 kts 353°
2026-05-06 20:10 38.35980 -67.57343 34142 ft 418 kts 353°
2026-05-06 20:11 38.41804 -67.57341 34145 ft 419 kts 353°
2026-05-06 20:11 38.47629 -67.57339 34146 ft 419 kts 353°
2026-05-06 20:12 38.53461 -67.57331 34145 ft 419 kts 354°
2026-05-06 20:12 38.57678 -67.57318 34141 ft 420 kts 354°
2026-05-06 20:13 38.63524 -67.57308 34140 ft 420 kts 353°
2026-05-06 20:13 38.68376 -67.57311 34146 ft 420 kts 353°
2026-05-06 20:14 38.69586 -67.57310 34162 ft 420 kts 354°
2026-05-06 20:14 38.75438 -67.57301 34142 ft 421 kts 354°
2026-05-06 20:15 38.81305 -67.57298 34134 ft 422 kts 354°
2026-05-06 20:15 38.87061 -67.57533 34130 ft 416 kts 345°
2026-05-06 20:16 38.92496 -67.59691 34143 ft 408 kts 334°
2026-05-06 20:16 38.97801 -67.62364 34112 ft 411 kts 334°
2026-05-06 20:17 39.03137 -67.65037 34108 ft 412 kts 334°
2026-05-06 20:17 39.08489 -67.67724 34107 ft 413 kts 334°
2026-05-06 20:18 39.13806 -67.70406 34111 ft 414 kts 334°
2026-05-06 20:18 39.19169 -67.73114 34117 ft 415 kts 334°
2026-05-06 20:19 39.24544 -67.75844 34112 ft 416 kts 334°
2026-05-06 20:19 39.29940 -67.78581 34109 ft 417 kts 334°
2026-05-06 20:20 39.35344 -67.81305 34103 ft 417 kts 334°
2026-05-06 20:20 39.40748 -67.84053 34117 ft 418 kts 333°
2026-05-06 20:21 39.46158 -67.86818 34104 ft 419 kts 333°
2026-05-06 20:21 39.49315 -67.88430 34102 ft 419 kts 333°
2026-05-06 20:22 39.54752 -67.91212 34108 ft 420 kts 333°
2026-05-06 20:22 39.55465 -67.91575 34108 ft 420 kts 333°
2026-05-06 20:23 39.60042 -67.93900 34100 ft 421 kts 334°
2026-05-06 20:23 39.65449 -67.96663 34111 ft 421 kts 333°
2026-05-06 20:24 39.70911 -67.99467 34104 ft 422 kts 333°
2026-05-06 20:24 39.76131 -68.02160 34102 ft 423 kts 333°
2026-05-06 20:25 39.80896 -68.04619 34104 ft 423 kts 333°
2026-05-06 20:25 39.86460 -68.07493 34117 ft 424 kts 333°
2026-05-06 20:26 39.91947 -68.10330 34106 ft 424 kts 332°
2026-05-06 20:26 39.97033 -68.14030 34102 ft 418 kts 322°
2026-05-06 20:27 40.01837 -68.18100 34104 ft 418 kts 322°
2026-05-06 20:27 40.06715 -68.22245 34104 ft 418 kts 322°
2026-05-06 20:28 40.09978 -68.25020 34100 ft 418 kts 322°
2026-05-06 20:28 40.14948 -68.29271 34105 ft 419 kts 322°
2026-05-06 20:29 40.19835 -68.33435 34093 ft 419 kts 322°
2026-05-06 20:29 40.24731 -68.37594 34090 ft 419 kts 322°
2026-05-06 20:30 40.32058 -68.43863 34088 ft 419 kts 322°
2026-05-06 20:31 40.36905 -68.48030 34097 ft 419 kts 321°
2026-05-06 20:31 40.41787 -68.52222 34083 ft 420 kts 321°
2026-05-06 20:32 40.46374 -68.56173 34086 ft 419 kts 321°
2026-05-06 20:32 40.51242 -68.60377 34078 ft 418 kts 321°
2026-05-06 20:33 40.56106 -68.64577 34065 ft 418 kts 321°
2026-05-06 20:33 40.60958 -68.68770 34086 ft 418 kts 321°
2026-05-06 20:34 40.65821 -68.72999 34060 ft 419 kts 321°
2026-05-06 20:34 40.70612 -68.77170 34051 ft 419 kts 321°
2026-05-06 20:35 40.74659 -68.80692 34046 ft 419 kts 321°
2026-05-06 20:35 40.78603 -68.84122 34047 ft 419 kts 321°
2026-05-06 20:36 40.83474 -68.88365 34052 ft 419 kts 320°
2026-05-06 20:36 40.88326 -68.92609 34052 ft 418 kts 320°
2026-05-06 20:37 40.93144 -68.96840 34046 ft 417 kts 320°
2026-05-06 20:37 40.97976 -69.01081 34036 ft 417 kts 320°
2026-05-06 20:38 41.02809 -69.05319 34034 ft 416 kts 320°
2026-05-06 20:38 41.07631 -69.09555 34033 ft 416 kts 320°
2026-05-06 20:39 41.12448 -69.13809 34028 ft 417 kts 320°
2026-05-06 20:39 41.16989 -69.17829 34019 ft 418 kts 320°
2026-05-06 20:40 41.21827 -69.22118 34015 ft 418 kts 319°
2026-05-06 20:40 41.26663 -69.26398 34009 ft 417 kts 319°
2026-05-06 20:41 41.31462 -69.30656 34003 ft 417 kts 319°
2026-05-06 20:41 41.36288 -69.34960 34002 ft 418 kts 319°
2026-05-06 20:42 41.41133 -69.39277 33990 ft 419 kts 319°
2026-05-06 20:42 41.45984 -69.43612 33985 ft 420 kts 319°
2026-05-06 20:43 41.50842 -69.47964 33982 ft 421 kts 319°
2026-05-06 20:43 41.55747 -69.52252 33981 ft 426 kts 325°
2026-05-06 20:44 41.61063 -69.55782 33965 ft 424 kts 325°
2026-05-06 20:44 41.66323 -69.59348 33953 ft 424 kts 325°
2026-05-06 20:44 41.68965 -69.61135 33733 ft 426 kts 325°
2026-05-06 20:45 41.71611 -69.62918 33466 ft 427 kts 325°
2026-05-06 20:45 41.74268 -69.64706 33201 ft 428 kts 325°
2026-05-06 20:45 41.76940 -69.66497 32925 ft 430 kts 326°
2026-05-06 20:45 41.79622 -69.68291 32677 ft 432 kts 326°
2026-05-06 20:46 41.82324 -69.70102 32145 ft 436 kts 326°
2026-05-06 20:46 41.85051 -69.71938 31330 ft 440 kts 326°
2026-05-06 20:46 41.87803 -69.73791 30489 ft 445 kts 326°
2026-05-06 20:46 41.90587 -69.75666 29557 ft 451 kts 326°
2026-05-06 20:47 41.93403 -69.77563 28639 ft 454 kts 326°
2026-05-06 20:47 41.96232 -69.79469 27686 ft 458 kts 326°
2026-05-06 20:47 41.99096 -69.81401 26659 ft 463 kts 327°
2026-05-06 20:47 42.01988 -69.83356 25632 ft 468 kts 327°
2026-05-06 20:48 42.04915 -69.85343 24578 ft 474 kts 327°
2026-05-06 20:48 42.07866 -69.87346 23577 ft 479 kts 327°
2026-05-06 20:48 42.10850 -69.89367 22628 ft 478 kts 327°
2026-05-06 20:48 42.13767 -69.91337 21849 ft 472 kts 327°
2026-05-06 20:49 42.16680 -69.93308 21134 ft 464 kts 327°
2026-05-06 20:49 42.19516 -69.95223 20206 ft 443 kts 326°
2026-05-06 20:49 42.22207 -69.97040 19500 ft 430 kts 326°
2026-05-06 20:49 42.24874 -69.98865 18764 ft 428 kts 326°
2026-05-06 20:50 42.27416 -70.00613 18066 ft 426 kts 326°
2026-05-06 20:50 42.30011 -70.02395 17389 ft 421 kts 325°
2026-05-06 20:50 42.32557 -70.04138 16750 ft 416 kts 325°
2026-05-06 20:50 42.35136 -70.05904 16038 ft 415 kts 325°
2026-05-06 20:51 42.37673 -70.07643 15355 ft 414 kts 324°
2026-05-06 20:51 42.40210 -70.09381 15027 ft 404 kts 324°
2026-05-06 20:51 42.42669 -70.11059 14901 ft 388 kts 324°
2026-05-06 20:51 42.44996 -70.12635 14724 ft 359 kts 323°
2026-05-06 20:52 42.47134 -70.14074 14548 ft 330 kts 322°
2026-05-06 20:52 42.49131 -70.15428 14120 ft 316 kts 322°
2026-05-06 20:52 42.51066 -70.16770 13887 ft 309 kts 321°
2026-05-06 20:52 42.52970 -70.18102 13652 ft 307 kts 321°
2026-05-06 20:53 42.54867 -70.19434 13389 ft 307 kts 321°
2026-05-06 20:53 42.56729 -70.20810 13122 ft 299 kts 314°
2026-05-06 20:53 42.58164 -70.22594 12729 ft 280 kts 296°
2026-05-06 20:53 42.59029 -70.24864 12266 ft 264 kts 277°
2026-05-06 20:54 42.59268 -70.27268 11837 ft 255 kts 265°
2026-05-06 20:54 42.59330 -70.29670 11411 ft 255 kts 265°
2026-05-06 20:54 42.59393 -70.32069 11015 ft 254 kts 265°
2026-05-06 20:54 42.59457 -70.34437 10785 ft 248 kts 265°
2026-05-06 20:55 42.59519 -70.36751 10654 ft 249 kts 264°
2026-05-06 20:55 42.59582 -70.39096 10551 ft 248 kts 265°
2026-05-06 20:55 42.59643 -70.41434 10449 ft 248 kts 264°
2026-05-06 20:55 42.59704 -70.43767 10326 ft 248 kts 264°
2026-05-06 20:56 42.59765 -70.46102 10227 ft 247 kts 264°
2026-05-06 20:56 42.59826 -70.48434 10104 ft 247 kts 264°
2026-05-06 20:56 42.59885 -70.50768 9989 ft 247 kts 264°
2026-05-06 20:56 42.59944 -70.53108 9466 ft 246 kts 264°
2026-05-06 20:57 42.60006 -70.55429 9001 ft 248 kts 264°
2026-05-06 20:57 42.60066 -70.57759 8645 ft 246 kts 264°
2026-05-06 20:57 42.60122 -70.60085 8179 ft 243 kts 264°
2026-05-06 20:57 42.60182 -70.62333 7729 ft 230 kts 264°
2026-05-06 20:58 42.60244 -70.64372 7619 ft 203 kts 263°
2026-05-06 20:58 42.60300 -70.66205 7244 ft 188 kts 262°
2026-05-06 20:58 42.60343 -70.67949 6548 ft 183 kts 261°
2026-05-06 20:58 42.60376 -70.69684 5866 ft 185 kts 261°
2026-05-06 20:59 42.60412 -70.71434 5248 ft 185 kts 262°
2026-05-06 20:59 42.60436 -70.73177 4623 ft 183 kts 258°
2026-05-06 20:59 42.60266 -70.74873 4088 ft 179 kts 253°
2026-05-06 20:59 42.60076 -70.76558 4009 ft 182 kts 253°
2026-05-06 21:00 42.59880 -70.78263 4004 ft 183 kts 253°
2026-05-06 21:00 42.59683 -70.79962 4005 ft 182 kts 254°
2026-05-06 21:00 42.59489 -70.81659 4007 ft 182 kts 253°
2026-05-06 21:00 42.59294 -70.83359 3997 ft 183 kts 253°
2026-05-06 21:01 42.59097 -70.85070 4006 ft 185 kts 253°
2026-05-06 21:01 42.58905 -70.86760 4000 ft 172 kts 253°
2026-05-06 21:01 42.58715 -70.88227 4021 ft 143 kts 249°
2026-05-06 21:01 42.58265 -70.89371 4016 ft 136 kts 230°
2026-05-06 21:02 42.57557 -70.90214 4015 ft 137 kts 214°
2026-05-06 21:02 42.56659 -70.90722 3947 ft 142 kts 206°
2026-05-06 21:02 42.55725 -70.91172 3817 ft 142 kts 206°
2026-05-06 21:02 42.54801 -70.91619 3644 ft 140 kts 207°
2026-05-06 21:03 42.53883 -70.92065 3469 ft 140 kts 209°
2026-05-06 21:03 42.52968 -70.92508 3290 ft 139 kts 207°
2026-05-06 21:03 42.52063 -70.92950 3107 ft 141 kts 202°
2026-05-06 21:03 42.51145 -70.93398 2929 ft 140 kts 205°
2026-05-06 21:04 42.50233 -70.93841 2741 ft 140 kts 205°
2026-05-06 21:04 42.49317 -70.94287 2555 ft 140 kts 204°
2026-05-06 21:04 42.48412 -70.94725 2373 ft 137 kts 205°
2026-05-06 21:04 42.47521 -70.95159 2193 ft 135 kts 202°
2026-05-06 21:05 42.46648 -70.95582 2001 ft 134 kts 200°
2026-05-06 21:05 42.45750 -70.96018 1821 ft 137 kts 202°
2026-05-06 21:05 42.44850 -70.96456 1633 ft 136 kts 201°
2026-05-06 21:05 42.43962 -70.96885 1449 ft 134 kts 202°
2026-05-06 21:06 42.43082 -70.97314 1268 ft 133 kts 200°
2026-05-06 21:06 42.42208 -70.97738 1073 ft 133 kts 200°
2026-05-06 21:06 42.41334 -70.98162 880 ft 135 kts 201°
2026-05-06 21:06 42.40465 -70.98583 703 ft 132 kts 201°
2026-05-06 21:07 42.39586 -70.99009 537 ft 133 kts 199°
2026-05-06 21:07 42.38719 -70.99429 345 ft 135 kts 199°
2026-05-06 21:07 42.37839 -70.99858 206 ft 133 kts 200°
2026-05-06 21:07 42.36968 -71.00285 47 ft 128 kts 200°
2026-05-06 21:08 42.36232 -71.00640 28 ft 94 kts 200°
2026-05-06 21:08 42.35779 -71.00858 26 ft 44 kts 200°
2026-05-06 21:08 42.35636 -71.00928 27 ft 9 kts 201°
2026-05-06 21:08 42.35575 -71.00959 29 ft 11 kts 200°
2026-05-06 21:09 42.35478 -71.01004 25 ft 19 kts 199°
2026-05-06 21:09 42.35381 -71.01104 27 ft 14 kts 276°
2026-05-06 21:09 42.35403 -71.01183 26 ft 14 kts 290°